Weather History for LICF - November, 2012

Change the Weather History Date:

Saturday, November 10, 2012

  Actual Average (LICR) Record (LICR)
Temperature  
Mean Temperature 63 °F -  
Max Temperature 68 °F 64 °F 75 °F (2001)
Min Temperature 58 °F 55 °F 51 °F (2002)
Degree Days  
Heating Degree Days 2    
Growing Degree Days 13 (Base 50)    
Moisture  
Dew Point 55 °F    
Average Humidity 72    
Maximum Humidity 78    
Minimum Humidity 58    
Precipitation  
Precipitation 0.00 in 0.14 in - ()
Sea Level Pressure  
Sea Level Pressure 30.06 in    
Wind  
Wind Speed 6 mph ()    
Max Wind Speed 13 mph    
Max Gust Speed 26 mph    
Visibility 7.1 miles    
Events      
Averages and records for this station are not official NWS values.
T = Trace of Precipitation, MM = Missing Value Source: Averaged Metar Reports

Daily Weather History Graph

Daily Weather History Graph

Search for Another Location

Airport or City:

Trip Planner

Search our weather history database for the weather conditions in past years. The results will help you decide how hot, cold, wet, or windy it might be!

Date:

Astronomy

Nov. 10, 2012 Rise Set
Actual Time 6:33 AM CET 4:49 PM CET
Civil Twilight 6:05 AM CET 5:17 PM CET
Nautical Twilight 5:34 AM CET 5:48 PM CET
Astronomical Twilight 5:03 AM CET 6:19 PM CET
Moon 2:22 AM CET (11/10) 2:23 PM CET (11/10)
Length of Visible Light 11h 11m
Length of Day
10h 15m
Waning Crescent, 16% of the Moon is Illuminated
Nov 10
Waning Crescent
Nov 13
New
Nov 20
First Quarter
Nov 28
Full
Dec 6
Last Quarter

Hourly Weather History & Observations

Time (CET) Temp. Dew Point Humidity Pressure Visibility Wind Dir Wind Speed Gust Speed Precip Events Conditions
12:55 AM 59.0 °F 51.8 °F 77% 30.09 in - West 2.3 mph - N/A   Clear
1:00 AM 59 °F 53 °F 73% 30.10 in 6 mi West 2.3 mph - -  
1:55 AM 59.0 °F 51.8 °F 77% 30.06 in - Calm Calm - N/A   Clear
2:55 AM 59.0 °F 51.8 °F 77% 30.06 in - Calm Calm - N/A   Clear
3:55 AM 59.0 °F 51.8 °F 77% 30.04 in - Calm Calm - N/A   Clear
4:55 AM 60.8 °F 51.8 °F 72% 30.06 in - WSW 5.8 mph - N/A   Clear
5:55 AM 62.6 °F 51.8 °F 68% 30.04 in - SW 5.8 mph - N/A   Clear
6:55 AM 62.6 °F 53.6 °F 72% 30.06 in - SW 5.8 mph - N/A   Clear
7:00 AM 63 °F 53 °F 63% 30.08 in 12 mi SW 5.8 mph - -   Clear
7:55 AM 64.4 °F 53.6 °F 68% 30.06 in - SW 8.1 mph - N/A   Clear
8:55 AM 64.4 °F 55.4 °F 73% 30.06 in 6.2 mi WSW 10.4 mph 21.9 mph N/A   Partly Cloudy
9:55 AM 64.4 °F 55.4 °F 73% 30.09 in 6.2 mi SW 11.5 mph 23.0 mph N/A   Partly Cloudy
10:55 AM 66.2 °F 55.4 °F 68% 30.09 in 6.2 mi WNW 11.5 mph 25.3 mph N/A   Partly Cloudy
12:55 PM 68.0 °F 57.2 °F 68% 30.06 in 6.2 mi SSW 11.5 mph 26.5 mph N/A   Partly Cloudy
1:00 PM 68 °F 57 °F 58% 30.08 in 12 mi SSW 11.5 mph - -   Scattered Clouds
1:55 PM 66.2 °F 55.4 °F 68% 30.06 in 6.2 mi SW 12.7 mph - N/A   Partly Cloudy
2:55 PM 66.2 °F 57.2 °F 73% 30.04 in 6.2 mi SW 9.2 mph 23.0 mph N/A   Partly Cloudy
3:55 PM 66.2 °F 55.4 °F 68% 30.04 in 6.2 mi WSW 10.4 mph 21.9 mph N/A   Partly Cloudy
4:55 PM 66.2 °F 57.2 °F 73% 30.04 in 6.2 mi SW 10.4 mph - N/A   Mostly Cloudy
5:55 PM 66.2 °F 57.2 °F 73% 30.06 in 6.2 mi SW 9.2 mph 21.9 mph N/A   Mostly Cloudy
6:55 PM 68.0 °F 59.0 °F 73% 30.06 in 6.2 mi WSW 11.5 mph - N/A   Mostly Cloudy
7:00 PM 68 °F 58 °F 63% 30.07 in 12 mi WSW 11.5 mph - -   Mostly Cloudy
7:55 PM 66.2 °F 57.2 °F 73% 30.06 in 6.2 mi SW 10.4 mph - N/A   Mostly Cloudy
8:55 PM 66.2 °F 59.0 °F 78% 30.06 in 6.2 mi West 9.2 mph - N/A   Mostly Cloudy
9:55 PM 66.2 °F 59.0 °F 78% 30.06 in 6.2 mi WSW 9.2 mph - N/A   Scattered Clouds
10:55 PM 66.2 °F 59.0 °F 78% 30.06 in 6.2 mi West 8.1 mph - N/A   Mostly Cloudy
11:55 PM 66.2 °F 59.0 °F 78% 30.06 in 6.2 mi West 10.4 mph - N/A   Mostly Cloudy